EW5139 Weather Reports


time (UTC)temp
C
wind
direction
speed
KPH
gust
KPH
rain 1hr
cm
rain 24hr
cm
rain mn
cm
humidity
%
barometer
mb
20260505041406 18 139 1.6 4.8 0.00 0.00 0.00 66 1006.3
20260505040906 18 131 0.0 4.8 0.00 0.00 0.00 67 1006.4
20260505040406 18 127 0.0 1.6 0.00 0.00 0.00 67 1006.4
20260505035906 18 135 0.0 4.8 0.00 0.00 0.00 67 1006.5
20260505035406 18 122 0.0 4.8 0.00 0.00 0.00 67 1006.5
20260505034906 18 121 1.6 4.8 0.00 0.00 0.00 67 1006.5
20260505034406 18 119 0.0 1.6 0.00 0.00 0.00 68 1006.5
20260505033906 18 129 0.0 3.2 0.00 0.00 0.00 68 1006.5
20260505033405 18 133 0.0 1.6 0.00 0.00 0.00 67 1006.5
20260505032906 19 113 0.0 3.2 0.00 0.00 0.00 67 1006.5
20260505032406 19 127 0.0 4.8 0.00 0.00 0.00 67 1006.4
20260505031905 19 161 0.0 0.0 0.00 0.00 0.00 67 1006.5
20260505031406 19 171 0.0 3.2 0.00 0.00 0.00 67 1006.5
20260505030906 19 64 0.0 4.8 0.00 0.00 0.00 67 1006.4
20260505030406 19 167 0.0 3.2 0.00 0.00 0.00 66 1006.4
20260505025905 19 110 0.0 1.6 0.00 0.00 0.00 66 1006.4
20260505025405 19 142 0.0 4.8 0.00 0.00 0.00 66 1006.3
20260505024906 19 80 0.0 3.2 0.00 0.00 0.00 67 1006.2
20260505024405 19 113 0.0 1.6 0.00 0.00 0.00 67 1006.1
20260505023906 19 140 0.0 1.6 0.00 0.00 0.00 67 1006.0
20260505023406 19 142 0.0 1.6 0.00 0.00 0.00 67 1006.0
20260505022905 19 102 0.0 1.6 0.00 0.00 0.00 66 1005.9
20260505022405 19 128 1.6 1.6 0.00 0.00 0.00 67 1005.8
20260505021906 19 146 0.0 3.2 0.00 0.00 0.00 67 1005.7
20260505021405 19 95 0.0 3.2 0.00 0.00 0.00 66 1005.7
20260505020906 19 112 1.6 3.2 0.00 0.00 0.00 66 1005.6
20260505020405 19 94 0.0 3.2 0.00 0.00 0.00 66 1005.5
20260505015906 19 116 0.0 1.6 0.00 0.00 0.00 66 1005.4
20260505015405 20 129 0.0 3.2 0.00 0.00 0.00 66 1005.3
20260505014905 20 92 0.0 1.6 0.00 0.00 0.00 65 1005.4
20260505014405 20 102 0.0 1.6 0.00 0.00 0.00 65 1005.4
20260505013905 20 141 0.0 1.6 0.00 0.00 0.00 64 1005.3
20260505013406 20 118 0.0 1.6 0.00 0.00 0.00 64 1005.3
20260505012905 20 114 0.0 1.6 0.00 0.00 0.00 64 1005.3
20260505012405 20 151 0.0 1.6 0.00 0.00 0.00 63 1005.3
20260505011906 20 129 0.0 1.6 0.00 0.00 0.00 63 1005.2
20260505011406 20 129 0.0 1.6 0.00 0.00 0.00 62 1005.1
20260505010905 20 139 0.0 1.6 0.00 0.00 0.00 62 1005.2
20260505010405 21 96 0.0 1.6 0.00 0.00 0.00 61 1005.1
20260505005905 21 168 0.0 4.8 0.00 0.00 0.00 61 1005.1
20260505005406 21 145 0.0 3.2 0.00 0.00 0.00 60 1005.2
20260505004905 21 134 0.0 4.8 0.00 0.00 0.00 60 1005.1
20260505004405 21 188 0.0 3.2 0.00 0.00 0.00 59 1005.1
20260505003405 21 122 0.0 4.8 0.00 0.00 0.00 58 1005.1
20260505002905 21 112 0.0 3.2 0.00 0.00 0.00 58 1005.0
20260505002406 21 156 1.6 4.8 0.00 0.00 0.00 57 1005.2
20260505001905 22 125 1.6 4.8 0.00 0.00 0.00 57 1005.2
20260505001405 22 138 1.6 4.8 0.00 0.00 0.00 56 1005.2
20260505000905 22 93 0.0 4.8 0.00 0.00 0.00 56 1005.2
20260505000406 22 132 1.6 3.2 0.00 0.00 0.00 56 1005.4
20260504235905 22 322 0.0 4.8 0.00 0.00 0.00 55 1005.4
20260504235405 22 247 1.6 4.8 0.00 0.00 0.00 55 1005.4
20260504234906 22 210 0.0 3.2 0.00 0.00 0.00 55 1005.6
20260504234405 22 278 1.6 4.8 0.00 0.00 0.00 54 1005.6
20260504233905 23 102 1.6 8.0 0.00 0.00 0.00 52 1005.6
20260504233406 23 76 1.6 4.8 0.00 0.00 0.00 52 1005.8
20260504232406 23 271 3.2 11.3 0.00 0.00 0.00 50 1005.8
20260504231905 23 180 3.2 9.7 0.00 0.00 0.00 50 1005.7
20260504231405 23 252 1.6 8.0 0.00 0.00 0.00 51 1005.6
20260504230905 24 151 1.6 4.8 0.00 0.00 0.00 52 1005.6
20260504230405 23 245 3.2 9.7 0.00 0.00 0.00 53 1005.7
20260504225905 23 195 3.2 12.9 0.00 0.00 0.00 54 1005.8
20260504225405 23 229 1.6 4.8 0.00 0.00 0.00 57 1006.0
20260504224405 22 68 0.0 4.8 0.00 0.00 0.00 59 1006.0
20260504223905 22 110 1.6 4.8 0.00 0.00 0.00 59 1006.0
20260504223405 22 138 0.0 3.2 0.00 0.00 0.00 59 1006.1
20260504222905 22 109 0.0 3.2 0.00 0.00 0.00 58 1006.1
20260504222406 23 153 1.6 4.8 0.00 0.00 0.00 58 1006.2
20260504221905 23 277 0.0 3.2 0.00 0.00 0.00 57 1006.2
20260504220905 23 337 0.0 1.6 0.00 0.00 0.00 55 1006.3
20260504215905 23 86 0.0 4.8 0.00 0.00 0.00 56 1006.3
20260504215405 23 132 1.6 4.8 0.00 0.00 0.00 55 1006.2
20260504214905 23 148 1.6 8.0 0.00 0.00 0.00 56 1006.3
20260504214405 23 254 1.6 4.8 0.00 0.00 0.00 54 1006.6
20260504213905 23 270 0.0 4.8 0.00 0.00 0.00 55 1006.6
20260504212905 23 30 0.0 4.8 0.00 0.00 0.00 56 1006.7
20260504212405 23 289 1.6 4.8 0.00 0.00 0.00 56 1006.9
20260504211405 23 142 0.0 4.8 0.00 0.00 0.00 56 1007.0
20260504210905 23 268 1.6 4.8 0.00 0.00 0.00 55 1007.1
20260504210404 23 324 3.2 11.3 0.00 0.00 0.00 57 1007.2
20260504205905 23 148 0.0 4.8 0.00 0.00 0.00 57 1007.3
20260504205405 23 259 3.2 9.7 0.00 0.00 0.00 57 1007.2
20260504204905 22 282 1.6 4.8 0.00 0.00 0.00 58 1007.2
20260504204404 22 258 1.6 9.7 0.00 0.00 0.00 57 1007.3
20260504203905 22 204 1.6 8.0 0.00 0.00 0.00 58 1007.4
20260504203404 22 270 0.0 4.8 0.00 0.00 0.00 58 1007.6
20260504202905 22 279 3.2 9.7 0.00 0.00 0.00 57 1007.7
20260504201905 22 238 1.6 9.7 0.00 0.00 0.00 57 1007.6
20260504201405 23 281 3.2 16.1 0.00 0.00 0.00 56 1007.6
20260504200905 23 233 1.6 16.1 0.00 0.00 0.00 58 1007.7
20260504200404 23 251 1.6 4.8 0.00 0.00 0.00 58 1007.6
20260504195905 22 191 3.2 11.3 0.00 0.00 0.00 60 1007.7
20260504195405 22 158 3.2 8.0 0.00 0.00 0.00 63 1007.7
20260504194905 21 154 1.6 4.8 0.00 0.00 0.00 64 1007.9
20260504194404 21 268 1.6 8.0 0.00 0.00 0.00 63 1008.0
20260504193905 21 270 1.6 4.8 0.00 0.00 0.00 66 1008.3
20260504193404 20 313 0.0 4.8 0.00 0.00 0.00 68 1008.5
20260504192904 20 342 1.6 16.1 0.00 0.00 0.00 67 1008.5
20260504192404 20 143 1.6 4.8 0.00 0.00 0.00 72 1008.6
20260504191904 19 122 3.2 8.0 0.00 0.00 0.00 71 1008.0
20260504191404 19 290 0.0 4.8 0.00 0.00 0.00 70 1008.9
20260504190905 19 322 0.0 1.6 0.00 0.00 0.00 71 1009.1
20260504190404 19 268 0.0 1.6 0.00 0.00 0.00 70 1008.9
20260504185904 19 44 0.0 8.0 0.00 0.00 0.00 69 1008.9
20260504185404 20 132 0.0 1.6 0.00 0.00 0.00 67 1009.2
20260504184905 20 34 1.6 4.8 0.00 0.00 0.00 65 1009.5
20260504184404 20 216 0.0 4.8 0.00 0.00 0.00 66 1009.2
20260504183404 20 182 3.2 9.7 0.00 0.00 0.00 63 1009.1
20260504182904 20 156 1.6 8.0 0.00 0.00 0.00 63 1009.0
20260504182405 21 150 1.6 14.5 0.00 0.00 0.00 63 1009.0
20260504181904 21 184 1.6 9.7 0.00 0.00 0.00 63 1008.7
20260504181405 21 144 1.6 9.7 0.00 0.00 0.00 63 1008.6
20260504175905 21 135 4.8 19.3 0.00 0.00 0.00 62 1008.4
20260504175404 21 246 1.6 19.3 0.00 0.00 0.00 63 1008.3
20260504174904 21 184 3.2 8.0 0.00 0.00 0.00 64 1008.2
20260504173904 21 185 1.6 4.8 0.00 0.00 0.00 64 1008.2
20260504173405 20 165 1.6 4.8 0.00 0.00 0.00 66 1008.1
20260504172905 20 242 3.2 9.7 0.00 0.00 0.00 65 1008.4
20260504172404 20 257 1.6 4.8 0.00 0.00 0.00 66 1008.5
20260504171904 20 157 1.6 4.8 0.00 0.00 0.00 67 1008.5
20260504171405 20 139 3.2 4.8 0.00 0.00 0.00 66 1008.2
20260504170904 20 287 0.0 4.8 0.00 0.00 0.00 67 1008.2
20260504170404 20 169 1.6 4.8 0.00 0.00 0.00 66 1008.4
20260504150904 17 214 0.0 3.2 0.00 0.00 0.00 69 1009.3
20260504150404 17 108 1.6 8.0 0.00 0.00 0.00 69 1009.2
20260504140904 16 91 0.0 4.8 0.00 0.00 0.00 70 1009.5
20260504130407 13 119 3.2 4.8 0.00 0.00 0.00 75 1009.9
20260504110407 10 139 0.0 0.0 0.00 0.00 0.00 77 1010.0
20260504100407 8 138 0.0 0.0 0.00 0.00 0.00 76 1010.3
20260504081907 10 102 0.0 0.0 0.00 0.00 0.00 72 1011.2
20260504081406 10 102 0.0 0.0 0.00 0.00 0.00 72 1011.2
20260504080906 10 62 0.0 0.0 0.00 0.00 0.00 71 1011.2
20260504080407 10 122 0.0 0.0 0.00 0.00 0.00 71 1011.3
20260504070406 10 133 0.0 1.6 0.00 0.00 0.00 70 1011.6
20260504050406 10 127 0.0 1.6 0.00 0.00 0.00 69 1012.8
20260504045906 10 127 0.0 1.6 0.00 0.00 0.00 69 1012.8
20260504045406 10 127 0.0 0.0 0.00 0.00 0.00 69 1012.8
20260504044906 10 127 0.0 1.6 0.00 0.00 0.00 69 1012.8
20260504044406 10 127 0.0 1.6 0.00 0.00 0.00 68 1013.0
20260504043906 10 127 0.0 0.0 0.00 0.00 0.00 68 1013.0
20260504043406 10 127 0.0 0.0 0.00 0.00 0.00 68 1013.1
20260504042906 10 127 0.0 0.0 0.00 0.00 0.00 68 1013.1
20260504042406 10 127 0.0 1.6 0.00 0.00 0.00 67 1013.1
20260504041906 11 125 0.0 1.6 0.00 0.00 0.00 67 1013.1